Location: Archamps
(46.1365°N, 6.1329°E)
Time: 05:30:29
(UTC+00:00)

Cosmos 676 Rocket - Pass Details

Date: 28 January 2023
Orbit: 754 x 782 km, 74.0° (Epoch: 21 March)

Event Time Altitude Azimuth Distance (km) Brightness Sun altitude
Rises 19:12:06 0° 202° (SSW) 3,251 7.5 -27.3°
Reaches altitude 10° 19:14:29 10° 203° (SSW) 2,325 6.7 -27.8°
Enters shadow 19:18:54 63° 213° (SSW) 868 4.2 -28.5°
